Date String (YYYY-MM-DD hh:mm:ss) UTC,Instrument flags,Ambient pressure (hPa),Sample flow (lpm),Bypass flow (lpm),Sample temperature (°C),Ambient temperature (°C),ASC tube jacket temperature (°C),LED temperature (°C),Box temperature (°C),Sample RH (%),Span deviation,Mass concentration (μg/m³),Mass concentration (μg/m³),Mass concentration (μg/m³)
DateTimeUTC,F1_M11,P_M11,Q1_M11,Q2_M11,T1_M11,T2_M11,T3_M11,T4_M11,T5_M11,U1_M11,ZSPAN_M11,X0_M11,X2_M11,X1_M11
2022-02-02 05:00:00,,0823.6,4.99,0.00,22.4,22.0,00.0,31.5,24.0,10.2,0000.0,0006.36,0002.98,0002.31
2022-02-02 05:01:00,,0823.7,5.00,0.00,22.3,21.9,00.0,31.5,23.9,10.2,0000.0,0006.14,0002.83,0002.17
2022-02-02 05:02:00,,0823.7,4.99,0.00,22.4,22.5,00.0,31.5,24.1,10.1,0000.0,0005.89,0002.60,0001.99
2022-02-02 05:03:00,,0823.8,4.99,0.00,22.6,23.3,00.0,31.5,24.4,09.9,0000.0,0005.63,0002.38,0001.81
2022-02-02 05:04:00,,0823.8,5.00,0.00,22.7,23.4,00.0,31.6,24.6,09.8,0000.0,0005.10,0002.29,0001.76
2022-02-02 05:05:00,,0823.8,4.99,0.00,22.7,23.1,00.0,31.6,24.5,09.8,0000.0,0005.26,0002.28,0001.75
2022-02-02 05:06:00,,0823.8,5.01,0.00,22.6,22.7,00.0,31.6,24.3,09.8,0000.0,0005.32,0002.25,0001.73
2022-02-02 05:07:00,,0823.8,5.00,0.00,22.6,22.4,00.0,31.6,24.2,09.8,0000.0,0006.17,0002.29,0001.74
2022-02-02 05:08:00,,0823.8,5.01,0.00,22.5,22.2,00.0,31.6,24.0,09.8,0000.0,0006.80,0002.29,0001.73
2022-02-02 05:09:00,,0823.8,4.98,0.00,22.4,22.0,00.0,31.6,23.9,09.8,0000.0,0006.97,0002.29,0001.73
2022-02-02 05:10:00,,0823.8,5.01,0.00,22.4,21.7,00.0,31.5,23.9,09.8,0000.0,0007.58,0002.34,0001.75
2022-02-02 05:11:00,,0823.9,4.99,0.00,22.3,21.9,00.0,31.5,23.9,09.8,0000.0,0007.72,0002.38,0001.76
2022-02-02 05:12:00,,0823.8,5.00,0.00,22.5,22.7,00.0,31.6,24.2,09.8,0000.0,0007.76,0002.39,0001.77
2022-02-02 05:13:00,,0823.9,5.00,0.00,22.6,23.4,00.0,31.6,24.5,09.7,0000.0,0007.88,0002.40,0001.78
2022-02-02 05:14:00,,0823.9,4.99,0.00,22.7,23.3,00.0,31.6,24.5,09.6,0000.0,0008.70,0002.45,0001.81
2022-02-02 05:15:00,,0823.9,5.01,0.00,22.7,22.9,00.0,31.6,24.4,09.6,0000.0,0008.73,0002.45,0001.82
2022-02-02 05:16:00,,0824.0,5.00,0.00,22.6,22.6,00.0,31.6,24.2,09.6,0000.0,0008.25,0002.47,0001.83
2022-02-02 05:17:00,,0824.0,5.01,0.00,22.5,22.3,00.0,31.6,24.1,09.6,0000.0,0008.18,0002.49,0001.86
2022-02-02 05:18:00,,0824.0,5.01,0.00,22.5,22.1,00.0,31.6,24.0,09.7,0000.0,0007.77,0002.49,0001.86
2022-02-02 05:19:00,,0824.1,4.99,0.00,22.4,21.8,00.0,31.6,24.0,09.7,0000.0,0007.44,0002.52,0001.87
2022-02-02 05:20:00,,0824.1,5.00,0.00,22.4,21.5,00.0,31.5,23.9,09.7,0000.0,0007.35,0002.54,0001.89
2022-02-02 05:21:00,,0824.1,4.99,0.00,22.3,21.4,00.0,31.5,23.9,09.7,0000.0,0006.86,0002.54,0001.90
2022-02-02 05:22:00,,0824.0,5.00,0.00,22.4,22.0,00.0,31.5,24.0,09.7,0000.0,0006.68,0002.54,0001.91
2022-02-02 05:23:00,,0824.1,5.00,0.00,22.5,22.9,00.0,31.5,24.3,09.7,0000.0,0006.64,0002.55,0001.92
2022-02-02 05:24:00,,0824.1,5.00,0.00,22.6,23.4,00.0,31.6,24.5,09.6,0000.0,0006.13,0002.57,0001.93
2022-02-02 05:25:00,,0824.1,5.00,0.00,22.7,23.1,00.0,31.6,24.5,09.6,0000.0,0004.45,0002.57,0001.93
2022-02-02 05:26:00,,0824.1,4.98,0.00,22.7,22.8,00.0,31.6,24.4,09.6,0000.0,0004.52,0002.60,0001.95
2022-02-02 05:27:00,,0824.1,5.01,0.00,22.6,22.5,00.0,31.6,24.3,09.6,0000.0,0004.74,0002.69,0001.99
2022-02-02 05:28:00,,0824.1,4.99,0.00,22.6,22.3,00.0,31.6,24.2,09.6,0000.0,0004.88,0002.75,0002.03
2022-02-02 05:29:00,,0824.1,5.02,0.00,22.5,22.1,00.0,31.6,24.1,09.6,0000.0,0005.22,0002.85,0002.11
2022-02-02 05:30:00,,0824.1,4.98,0.00,22.4,21.9,00.0,31.5,23.9,09.7,0000.0,0005.36,0002.92,0002.20
2022-02-02 05:31:00,,0824.1,5.00,0.00,22.4,21.7,00.0,31.5,23.9,09.8,0000.0,0005.54,0003.05,0002.28
2022-02-02 05:32:00,,0824.1,4.99,0.00,22.3,21.5,00.0,31.5,23.8,09.8,0000.0,0005.58,0003.16,0002.38
2022-02-02 05:33:00,,0824.2,5.01,0.00,22.2,21.4,00.0,31.5,23.7,09.8,0000.0,0005.79,0003.26,0002.52
2022-02-02 05:34:00,,0824.2,4.99,0.00,22.2,21.8,00.0,31.5,23.8,09.9,0000.0,0006.21,0003.40,0002.67
2022-02-02 05:35:00,,0824.2,5.01,0.00,22.3,22.5,00.0,31.5,24.1,09.8,0000.0,0006.43,0003.52,0002.84
2022-02-02 05:36:00,,0824.2,4.99,0.00,22.5,23.2,00.0,31.5,24.3,09.7,0000.0,0006.89,0003.68,0002.98
2022-02-02 05:37:00,,0824.3,5.01,0.00,22.6,23.0,00.0,31.5,24.4,09.6,0000.0,0007.54,0003.79,0003.11
2022-02-02 05:38:00,,0824.2,5.00,0.00,22.6,22.7,00.0,31.5,24.3,09.6,0000.0,0008.11,0003.89,0003.18
2022-02-02 05:39:00,,0824.3,5.01,0.00,22.5,22.4,00.0,31.5,24.1,09.6,0000.0,0008.23,0003.96,0003.24
2022-02-02 05:40:00,,0824.3,4.98,0.00,22.4,22.1,00.0,31.5,23.9,09.7,0000.0,0008.64,0004.00,0003.28
2022-02-02 05:41:00,,0824.3,5.01,0.00,22.3,21.8,00.0,31.5,23.9,09.7,0000.0,0009.02,0004.06,0003.32
2022-02-02 05:42:00,,0824.3,4.99,0.00,22.3,21.7,00.0,31.4,23.8,09.7,0000.0,0009.13,0004.09,0003.35
2022-02-02 05:43:00,,0824.3,5.01,0.00,22.3,21.6,00.0,31.4,23.7,09.8,0000.0,0009.26,0004.13,0003.37
2022-02-02 05:44:00,,0824.3,4.98,0.00,22.2,21.5,00.0,31.4,23.7,09.8,0000.0,0009.47,0004.15,0003.38
2022-02-02 05:45:00,,0824.3,5.00,0.00,22.1,21.3,00.0,31.4,23.6,09.8,0000.0,0009.56,0004.13,0003.37
2022-02-02 05:46:00,,0824.3,5.01,0.00,22.1,21.5,00.0,31.3,23.6,09.8,0000.0,0009.58,0004.14,0003.36
2022-02-02 05:47:00,,0824.3,4.99,0.00,22.2,22.2,00.0,31.4,23.9,09.8,0000.0,0009.48,0004.09,0003.35
2022-02-02 05:48:00,,0824.3,5.00,0.00,22.3,23.0,00.0,31.4,24.2,09.7,0000.0,0009.40,0004.08,0003.36
2022-02-02 05:49:00,,0824.3,4.99,0.00,22.5,23.0,00.0,31.4,24.3,09.7,0000.0,0008.96,0004.06,0003.37
2022-02-02 05:50:00,,0824.4,4.99,0.00,22.5,22.7,00.0,31.4,24.3,09.7,0000.0,0009.00,0004.09,0003.38
2022-02-02 05:51:00,,0824.4,5.00,0.00,22.4,22.4,00.0,31.4,24.2,09.7,0000.0,0009.51,0004.12,0003.39
2022-02-02 05:52:00,,0824.4,5.01,0.00,22.4,22.2,00.0,31.4,24.1,09.7,0000.0,0009.16,0004.17,0003.42
2022-02-02 05:53:00,,0824.4,5.01,0.00,22.4,22.0,00.0,31.4,24.0,09.7,0000.0,0009.70,0004.24,0003.44
2022-02-02 05:54:00,,0824.4,4.99,0.00,22.3,21.9,00.0,31.4,23.9,09.7,0000.0,0009.73,0004.27,0003.47
2022-02-02 05:55:00,,0824.4,5.01,0.00,22.3,21.7,00.0,31.4,23.8,09.8,0000.0,0009.63,0004.26,0003.49
2022-02-02 05:56:00,,0824.4,4.99,0.00,22.2,21.6,00.0,31.4,23.8,09.8,0000.0,0009.34,0004.22,0003.48
2022-02-02 05:57:00,,0824.4,5.02,0.00,22.2,21.5,00.0,31.3,23.8,09.8,0000.0,0009.36,0004.19,0003.46
2022-02-02 05:58:00,,0824.4,4.99,0.00,22.2,21.4,00.0,31.3,23.7,09.7,0000.0,0009.14,0004.07,0003.39
2022-02-02 05:59:00,,0824.4,4.99,0.00,22.1,21.4,00.0,31.3,23.7,09.6,0000.0,0008.79,0003.96,0003.31
